| time (UTC) | temp C | wind direction | speed KPH | gust KPH | rain 1hr cm | rain 24hr cm | rain mn cm | humidity % | barometer mb |
| 20260502221506 | 18 | 169 | 9.7 | 16.1 | 0.00 | 0.00 | 0.00 | 66 | 1010.9 |
| 20260502220002 | 18 | 179 | 3.2 | 11.3 | 0.00 | 0.00 | 0.00 | 65 | 1011.3 |
| 20260502214601 | 19 | 179 | 6.4 | 14.5 | 0.00 | 0.00 | 0.00 | 65 | 1011.4 |
| 20260502213058 | 19 | 179 | 0.0 | 12.9 | 0.00 | 0.00 | 0.00 | 63 | 1011.5 |
| 20260502211555 | 19 | 179 | 1.6 | 6.4 | 0.00 | 0.00 | 0.00 | 66 | 1011.9 |
| 20260502210105 | 18 | 179 | 1.6 | 11.3 | 0.00 | 0.00 | 0.00 | 69 | 1011.8 |
| 20260502204554 | 17 | 179 | 6.4 | 12.9 | 0.00 | 0.00 | 0.00 | 70 | 1012.1 |
| 20260502203050 | 17 | 179 | 3.2 | 6.4 | 0.00 | 0.00 | 0.00 | 71 | 1012.3 |
| 20260502201543 | 16 | 179 | 0.0 | 4.8 | 0.00 | 0.00 | 0.00 | 70 | 1012.7 |
| 20260502200044 | 16 | 179 | 4.8 | 12.9 | 0.00 | 0.00 | 0.00 | 72 | 1012.9 |
| 20260502194538 | 15 | 179 | 3.2 | 8.0 | 0.00 | 0.00 | 0.00 | 74 | 1013.2 |
| 20260502193039 | 14 | 179 | 6.4 | 16.1 | 0.00 | 0.00 | 0.00 | 80 | 1013.4 |
| 20260502191539 | 12 | 158 | 14.5 | 20.9 | 0.00 | 0.00 | 0.00 | 83 | 1013.6 |
| 20260502190042 | 13 | 141 | 1.6 | 14.5 | 0.00 | 0.00 | 0.00 | 78 | 1013.3 |
| 20260502184538 | 14 | 179 | 3.2 | 16.1 | 0.00 | 0.00 | 0.00 | 74 | 1013.3 |
| 20260502183033 | 15 | 179 | 3.2 | 14.5 | 0.00 | 0.00 | 0.00 | 71 | 1013.3 |
| 20260502181537 | 15 | 179 | 3.2 | 14.5 | 0.00 | 0.00 | 0.00 | 72 | 1013.4 |
| 20260502163030 | 11 | 153 | 3.2 | 6.4 | 0.00 | 0.00 | 0.00 | 82 | 1014.4 |
| 20260502161522 | 11 | 151 | 6.4 | 11.3 | 0.00 | 0.00 | 0.00 | 83 | 1014.3 |
| 20260502151527 | 10 | 179 | 4.8 | 12.9 | 0.00 | 0.00 | 0.00 | 85 | 1014.5 |
| 20260502123050 | -17 | 0.0 | 0.0 | 0.00 | 0.00 | 0.00 | 1014.3 | ||
| 20260502121541 | 8 | 224 | 3.2 | 11.3 | 0.00 | 0.00 | 0.00 | 83 | 1014.2 |
| 20260502114538 | 8 | 179 | 0.0 | 4.8 | 0.00 | 0.00 | 0.00 | 82 | 1014.0 |
| 20260502113037 | 9 | 178 | 0.0 | 6.4 | 0.00 | 0.00 | 0.00 | 81 | 1013.9 |
| 20260502111539 | 9 | 155 | 1.6 | 6.4 | 0.00 | 0.00 | 0.00 | 81 | 1014.2 |
| 20260502110034 | 9 | 155 | 3.2 | 17.7 | 0.00 | 0.00 | 0.00 | 81 | 1014.0 |
| 20260502104536 | 9 | 178 | 4.8 | 19.3 | 0.00 | 0.00 | 0.00 | 80 | 1013.5 |
| 20260502103030 | 9 | 156 | 6.4 | 12.9 | 0.00 | 0.00 | 0.00 | 81 | 1013.8 |
| 20260502101526 | 9 | 150 | 4.8 | 12.9 | 0.00 | 0.00 | 0.00 | 82 | 1013.9 |
| 20260502091517 | 10 | 166 | 3.2 | 6.4 | 0.00 | 0.00 | 0.00 | 89 | 1014.5 |
| 20260502070059 | 12 | 176 | 3.2 | 6.4 | 0.00 | 0.00 | 0.00 | 69 | 1014.8 |
| 20260502064606 | 12 | 171 | 4.8 | 8.0 | 0.00 | 0.00 | 0.00 | 69 | 1014.7 |
| 20260502063103 | 12 | 155 | 0.0 | 6.4 | 0.00 | 0.00 | 0.00 | 73 | 1014.7 |
| 20260502061612 | 12 | 155 | 0.0 | 3.2 | 0.00 | 0.00 | 0.00 | 77 | 1014.7 |
| 20260502060055 | 12 | 178 | 1.6 | 6.4 | 0.00 | 0.00 | 0.00 | 81 | 1014.5 |
| 20260502054555 | 12 | 179 | 1.6 | 6.4 | 0.00 | 0.00 | 0.00 | 82 | 1014.5 |
| 20260502053103 | 13 | 172 | 0.0 | 3.2 | 0.00 | 0.00 | 0.00 | 79 | 1014.4 |
| 20260502051553 | 13 | 176 | 0.0 | 3.2 | 0.00 | 0.00 | 0.00 | 75 | 1014.3 |
| 20260502050058 | 13 | 172 | 1.6 | 3.2 | 0.00 | 0.00 | 0.00 | 73 | 1014.2 |
| 20260502044553 | 14 | 176 | 0.0 | 1.6 | 0.00 | 0.00 | 0.00 | 72 | 1014.1 |
| 20260502043059 | 14 | 177 | 3.2 | 6.4 | 0.00 | 0.00 | 0.00 | 71 | 1013.9 |
| 20260502041554 | 15 | 155 | 4.8 | 8.0 | 0.00 | 0.00 | 0.00 | 71 | 1013.7 |
| 20260502040054 | 14 | 154 | 4.8 | 9.7 | 0.00 | 0.00 | 0.00 | 76 | 1013.6 |
| 20260502034649 | 15 | 154 | 6.4 | 9.7 | 0.00 | 0.00 | 0.00 | 76 | 1013.5 |
| 20260502033049 | 15 | 177 | 1.6 | 8.0 | 0.00 | 0.00 | 0.00 | 74 | 1013.3 |
| 20260502031550 | 16 | 160 | 1.6 | 6.4 | 0.00 | 0.00 | 0.00 | 72 | 1013.1 |
| 20260502030046 | 16 | 179 | 3.2 | 6.4 | 0.00 | 0.00 | 0.00 | 72 | 1012.8 |
| 20260502024558 | 16 | 178 | 6.4 | 9.7 | 0.00 | 0.00 | 0.00 | 72 | 1012.6 |
| 20260502023045 | 17 | 178 | 4.8 | 8.0 | 0.00 | 0.00 | 0.00 | 70 | 1012.5 |
| 20260502021547 | 18 | 178 | 1.6 | 4.8 | 0.00 | 0.00 | 0.00 | 67 | 1012.4 |
| 20260502020045 | 19 | 178 | 3.2 | 8.0 | 0.00 | 0.00 | 0.00 | 63 | 1012.2 |
| 20260502014543 | 20 | 178 | 4.8 | 11.3 | 0.00 | 0.00 | 0.00 | 62 | 1012.2 |
| 20260502013043 | 20 | 179 | 8.0 | 14.5 | 0.00 | 0.00 | 0.00 | 66 | 1012.1 |
| 20260502011543 | 20 | 174 | 8.0 | 12.9 | 0.00 | 0.00 | 0.00 | 64 | 1012.0 |
| 20260502010042 | 21 | 151 | 9.7 | 16.1 | 0.00 | 0.00 | 0.00 | 60 | 1012.0 |
| 20260502004542 | 21 | 171 | 8.0 | 16.1 | 0.00 | 0.00 | 0.00 | 57 | 1011.9 |
| 20260502003040 | 22 | 178 | 8.0 | 12.9 | 0.00 | 0.00 | 0.00 | 52 | 1012.0 |
| 20260502001538 | 22 | 177 | 1.6 | 9.7 | 0.00 | 0.00 | 0.00 | 51 | 1012.0 |
| 20260502000040 | 22 | 177 | 1.6 | 11.3 | 0.00 | 0.00 | 0.00 | 53 | 1012.0 |
| 20260501234535 | 22 | 153 | 3.2 | 9.7 | 0.00 | 0.00 | 0.00 | 51 | 1012.1 |
| 20260501233032 | 22 | 150 | 1.6 | 12.9 | 0.00 | 0.00 | 0.00 | 50 | 1012.1 |
| 20260501231531 | 22 | 148 | 8.0 | 12.9 | 0.00 | 0.00 | 0.00 | 52 | 1012.2 |
| 20260501230033 | 22 | 179 | 1.6 | 6.4 | 0.00 | 0.00 | 0.00 | 51 | 1012.4 |
| 20260501224525 | 22 | 173 | 3.2 | 12.9 | 0.00 | 0.00 | 0.00 | 53 | 1012.7 |
| 20260501223024 | 22 | 150 | 4.8 | 8.0 | 0.00 | 0.00 | 0.00 | 54 | 1012.8 |